N211CX KNUC-KNSI

Flight info

Callsign N211CX
Flight time 0h 19m
Altitude 10000
Route NUC
Aircraft B737/M-VGDW/C

Departure

Time 2026-04-20 23:17
Airport San Clemente Island Naval Auxiliary Landing Field (KNUC)

Arrival

Time 2026-04-20 23:36
Airport San Nicolas Island Nolf Airport (KNSI)
Time Latitude Longitude Altitude Speed Heading
2026-04-20 23:08 33.02085 -118.58548 152 ft 0 kts 65°
2026-04-20 23:14 33.02094 -118.58528 153 ft 13 kts 54°
2026-04-20 23:14 33.02227 -118.58515 155 ft 21 kts 23°
2026-04-20 23:15 33.02320 -118.58300 162 ft 38 kts 67°
2026-04-20 23:15 33.02432 -118.57978 172 ft 45 kts 67°
2026-04-20 23:15 33.02551 -118.57642 184 ft 42 kts 67°
2026-04-20 23:15 33.02672 -118.57441 191 ft 20 kts
2026-04-20 23:16 33.02695 -118.57441 197 ft 0 kts 349°
2026-04-20 23:16 33.02746 -118.57492 194 ft 18 kts 282°
2026-04-20 23:16 33.02648 -118.57789 180 ft 81 kts 247°
2026-04-20 23:16 33.02263 -118.58858 374 ft 180 kts 248°
2026-04-20 23:17 33.01807 -118.60159 2404 ft 174 kts 248°
2026-04-20 23:17 33.01337 -118.61567 4030 ft 187 kts 248°
2026-04-20 23:17 33.01001 -118.63108 5364 ft 213 kts 265°
2026-04-20 23:17 33.01227 -118.64958 6451 ft 229 kts 279°
2026-04-20 23:18 33.01555 -118.66820 7882 ft 231 kts 279°
2026-04-20 23:18 33.01881 -118.68708 9363 ft 235 kts 278°
2026-04-20 23:18 33.02217 -118.70767 9971 ft 286 kts 278°
2026-04-20 23:18 33.02616 -118.73349 10027 ft 348 kts 278°
2026-04-20 23:19 33.03068 -118.76367 10019 ft 382 kts 278°
2026-04-20 23:19 33.03528 -118.79486 9993 ft 375 kts 278°
2026-04-20 23:19 33.03961 -118.82471 9974 ft 355 kts 277°
2026-04-20 23:19 33.04360 -118.85262 9911 ft 330 kts 277°
2026-04-20 23:20 33.04721 -118.87828 10023 ft 292 kts 277°
2026-04-20 23:20 33.05044 -118.90133 9433 ft 275 kts 277°
2026-04-20 23:20 33.05346 -118.92326 8795 ft 261 kts 277°
2026-04-20 23:20 33.05634 -118.94424 8145 ft 253 kts 277°
2026-04-20 23:21 33.05915 -118.96486 7510 ft 252 kts 277°
2026-04-20 23:21 33.06195 -118.98544 6896 ft 251 kts 277°
2026-04-20 23:21 33.06475 -119.00598 6271 ft 250 kts 277°
2026-04-20 23:21 33.06753 -119.02644 5621 ft 249 kts 277°
2026-04-20 23:22 33.07030 -119.04671 4985 ft 247 kts 277°
2026-04-20 23:22 33.07303 -119.06681 4354 ft 244 kts 277°
2026-04-20 23:22 33.07569 -119.08629 4281 ft 216 kts 278°
2026-04-20 23:22 33.07794 -119.10261 4880 ft 206 kts 277°
2026-04-20 23:23 33.08044 -119.12138 5226 ft 252 kts 277°
2026-04-20 23:23 33.08333 -119.14279 5476 ft 267 kts 277°
2026-04-20 23:23 33.08628 -119.16450 5756 ft 269 kts 277°
2026-04-20 23:23 33.08927 -119.18647 6019 ft 268 kts 277°
2026-04-20 23:24 33.09226 -119.20847 6313 ft 270 kts 277°
2026-04-20 23:24 33.09526 -119.23062 6574 ft 270 kts 277°
2026-04-20 23:24 33.09824 -119.25278 6833 ft 271 kts 277°
2026-04-20 23:24 33.10119 -119.27464 7421 ft 266 kts 277°
2026-04-20 23:25 33.10684 -119.29577 8549 ft 268 kts 299°
2026-04-20 23:25 33.11961 -119.31271 9831 ft 290 kts 320°
2026-04-20 23:25 33.13858 -119.32233 9992 ft 321 kts 351°
2026-04-20 23:25 33.16237 -119.31976 9989 ft 361 kts 19°
2026-04-20 23:26 33.18385 -119.30438 9983 ft 364 kts 45°
2026-04-20 23:26 33.19755 -119.27955 9976 ft 359 kts 72°
2026-04-20 23:26 33.20069 -119.25051 9976 ft 352 kts 98°
2026-04-20 23:26 33.19400 -119.22286 9971 ft 347 kts 120°
2026-04-20 23:27 33.17874 -119.20194 9972 ft 333 kts 147°
2026-04-20 23:27 33.15851 -119.19112 9989 ft 306 kts 161°
2026-04-20 23:27 33.14012 -119.18014 9965 ft 286 kts 148°
2026-04-20 23:27 33.12501 -119.16590 9958 ft 268 kts 140°
2026-04-20 23:28 33.11151 -119.15160 9951 ft 250 kts 149°
2026-04-20 23:28 33.09619 -119.14416 9973 ft 230 kts 171°
2026-04-20 23:28 33.08084 -119.14397 9972 ft 214 kts 191°
2026-04-20 23:28 33.06757 -119.14988 9979 ft 195 kts 210°
2026-04-20 23:29 33.05797 -119.15977 9958 ft 172 kts 229°
2026-04-20 23:29 33.05194 -119.17189 9988 ft 171 kts 245°
2026-04-20 23:29 33.04923 -119.18566 10011 ft 171 kts 262°
2026-04-20 23:29 33.04982 -119.20008 9861 ft 180 kts 274°
2026-04-20 23:30 33.05368 -119.21523 8851 ft 200 kts 294°
2026-04-20 23:30 33.06212 -119.22867 8064 ft 200 kts 308°
2026-04-20 23:30 33.07134 -119.24080 7351 ft 194 kts 310°
2026-04-20 23:30 33.08024 -119.25228 6708 ft 188 kts 310°
2026-04-20 23:31 33.08900 -119.26357 6093 ft 183 kts 310°
2026-04-20 23:31 33.09757 -119.27464 5469 ft 179 kts 310°
2026-04-20 23:31 33.10600 -119.28550 4867 ft 177 kts 310°
2026-04-20 23:31 33.11432 -119.29621 4229 ft 174 kts 310°
2026-04-20 23:32 33.12237 -119.30657 3812 ft 162 kts 310°
2026-04-20 23:32 33.12959 -119.31585 3649 ft 146 kts 309°
2026-04-20 23:32 33.13681 -119.32518 3653 ft 157 kts 310°
2026-04-20 23:32 33.14409 -119.33456 3441 ft 150 kts 310°
2026-04-20 23:33 33.15118 -119.34370 2996 ft 149 kts 310°
2026-04-20 23:33 33.15805 -119.35255 2611 ft 144 kts 309°
2026-04-20 23:33 33.16464 -119.36104 2305 ft 137 kts 309°
2026-04-20 23:33 33.17103 -119.36927 2192 ft 135 kts 310°
2026-04-20 23:34 33.17751 -119.37766 2021 ft 139 kts 309°
2026-04-20 23:34 33.18402 -119.38609 1851 ft 137 kts 310°
2026-04-20 23:34 33.19049 -119.39444 1681 ft 137 kts 309°
2026-04-20 23:34 33.19699 -119.40283 1479 ft 137 kts 309°
2026-04-20 23:35 33.20338 -119.41108 1284 ft 134 kts 309°
2026-04-20 23:35 33.21647 -119.42761 967 ft 136 kts 308°
2026-04-20 23:35 33.22254 -119.43598 814 ft 131 kts 309°
2026-04-20 23:36 33.22876 -119.44402 624 ft 132 kts 310°
2026-04-20 23:36 33.23496 -119.45194 509 ft 122 kts 308°
2026-04-20 23:36 33.23998 -119.45849 502 ft 86 kts 312°
2026-04-20 23:36 33.24304 -119.46245 491 ft 48 kts 313°
2026-04-20 23:37 33.24333 -119.46419 499 ft 21 kts 225°
2026-04-20 23:37 33.24242 -119.46431 495 ft 14 kts 131°
2026-04-20 23:37 33.24193 -119.46406 492 ft 0 kts 230°
2026-04-20 23:37 33.24182 -119.46435 491 ft 5 kts 210°
2026-04-20 23:38 33.24150 -119.46420 496 ft 2 kts 131°
2026-04-20 23:38 33.24150 -119.46419 496 ft 0 kts 131°